When you browse on this site, cookies collect data to enhance your experience and personalize the content and advertising you see.
Visit our Privacy Policy to learn more. By continuing to use the site, you agree to this use of cookies and data.
  • In Sweden
  • List of Countries
  • For 7 days
  • Water Temperature
  • Satellite Maps
  • Weather Map
  • Weather Widgets
  • user-avatar
    Login

    Hourly Weather Dziwle

    Today, 20 February, Wednesday

    Time Temperature Precipitation Wind Pressure Humidity
    00:00 +2°C° 0 mm 5 mps 740 mmHg 89%
    01:00 +1°C° 0 mm 4 mps 740 mmHg 88%
    02:00 +1°C° 0 mm 5 mps 740 mmHg 88%
    03:00 +1°C° 0 mm 5 mps 740 mmHg 89%
    04:00 +1°C° 0 mm 5 mps 740 mmHg 90%
    05:00 +1°C° 0 mm 6 mps 740 mmHg 89%
    06:00 +1°C° 0 mm 6 mps 741 mmHg 88%
    07:00 +1°C° 0 mm 6 mps 741 mmHg 88%
    08:00 +2°C° 0.1 mm 6 mps 741 mmHg 85%
    09:00 +2°C° 0.1 mm 6 mps 742 mmHg 83%
    10:00 +2°C° 0.1 mm 6 mps 742 mmHg 80%
    11:00 +2°C° 0.1 mm 6 mps 742 mmHg 78%
    12:00 +2°C° 0.1 mm 7 mps 743 mmHg 77%
    13:00 +2°C° 0.1 mm 7 mps 743 mmHg 75%
    14:00 +2°C° 0.1 mm 6 mps 743 mmHg 75%
    15:00 +2°C° 0.1 mm 6 mps 743 mmHg 76%
    16:00 +2°C° 0.1 mm 6 mps 743 mmHg 76%
    17:00 +2°C° 0.1 mm 6 mps 744 mmHg 77%
    18:00 +2°C° 0.1 mm 5 mps 744 mmHg 78%
    19:00 +2°C° 0.1 mm 5 mps 744 mmHg 80%
    20:00 +3°C° 0 mm 4 mps 744 mmHg 81%
    21:00 +3°C° 0 mm 4 mps 745 mmHg 82%
    22:00 +2°C° 0 mm 3 mps 745 mmHg 83%
    23:00 +2°C° 0 mm 3 mps 745 mmHg 85%

    Tomorrow, 21 February, Thursday

    Time Temperature Precipitation Wind Pressure Humidity
    00:00 +2°C° 0 mm 3 mps 745 mmHg 86%
    01:00 +2°C° 0 mm 3 mps 746 mmHg 88%
    02:00 +2°C° 0 mm 3 mps 746 mmHg 88%
    03:00 +2°C° 0 mm 3 mps 746 mmHg 88%
    04:00 +3°C° 0 mm 4 mps 746 mmHg 87%
    05:00 +3°C° 0 mm 4 mps 746 mmHg 89%
    06:00 +1°C° 0 mm 4 mps 746 mmHg 91%
    07:00 +1°C° 0 mm 4 mps 745 mmHg 93%
    08:00 +3°C° 0 mm 4 mps 745 mmHg 89%
    09:00 +2°C° 0 mm 5 mps 745 mmHg 84%
    10:00 +3°C° 0 mm 5 mps 745 mmHg 79%
    11:00 +3°C° 0.3 mm 6 mps 745 mmHg 80%
    12:00 +3°C° 0.3 mm 6 mps 745 mmHg 80%
    13:00 +3°C° 0.3 mm 6 mps 744 mmHg 81%
    14:00 +3°C° 0.9 mm 6 mps 744 mmHg 82%
    15:00 +3°C° 0.9 mm 7 mps 743 mmHg 83%
    16:00 +3°C° 0.9 mm 7 mps 743 mmHg 84%
    17:00 +3°C° 0.7 mm 7 mps 743 mmHg 86%
    18:00 +3°C° 0.7 mm 7 mps 743 mmHg 87%
    19:00 +3°C° 0.7 mm 6 mps 743 mmHg 89%
    20:00 +3°C° 0.4 mm 6 mps 742 mmHg 90%
    21:00 +3°C° 0.4 mm 6 mps 742 mmHg 91%
    22:00 +3°C° 0.4 mm 6 mps 742 mmHg 92%
    23:00 +3°C° 0.8 mm 6 mps 742 mmHg 93%

    Day after tomorrow, 22 February, Friday

    Time Temperature Precipitation Wind Pressure Humidity
    00:00 +3°C° 0.8 mm 6 mps 742 mmHg 93%
    01:00 +3°C° 0.8 mm 6 mps 742 mmHg 94%
    02:00 +3°C° 0.6 mm 6 mps 742 mmHg 94%
    03:00 +3°C° 0.6 mm 6 mps 742 mmHg 93%
    04:00 +3°C° 0.6 mm 6 mps 743 mmHg 93%
    05:00 +1°C° 0.3 mm 6 mps 744 mmHg 89%
    06:00 -1°C° 0.3 mm 7 mps 745 mmHg 85%
    07:00 -4°C° 0.3 mm 8 mps 746 mmHg 82%
    08:00 -3°C° 0 mm 7 mps 747 mmHg 75%
    09:00 -3°C° 0 mm 7 mps 749 mmHg 69%
    10:00 -3°C° 0 mm 7 mps 750 mmHg 62%
    11:00 -3°C° 0 mm 7 mps 751 mmHg 58%
    12:00 -3°C° 0 mm 6 mps 752 mmHg 55%
    13:00 -3°C° 0 mm 6 mps 753 mmHg 51%
    14:00 -3°C° 0 mm 6 mps 753 mmHg 51%
    15:00 -4°C° 0 mm 6 mps 754 mmHg 51%
    16:00 -4°C° 0 mm 6 mps 754 mmHg 51%
    17:00 -5°C° 0 mm 5 mps 755 mmHg 53%
    18:00 -5°C° 0 mm 5 mps 755 mmHg 55%
    19:00 -6°C° 0 mm 5 mps 756 mmHg 57%
    20:00 -6°C° 0 mm 5 mps 756 mmHg 55%
    21:00 -5°C° 0 mm 4 mps 757 mmHg 53%
    22:00 -7°C° 0 mm 4 mps 757 mmHg 51%
    23:00 -7°C° 0 mm 4 mps 758 mmHg 48%

    23 February, Saturday

    Time Temperature Precipitation Wind Pressure Humidity
    00:00 -7°C° 0 mm 4 mps 758 mmHg 45%
    01:00 -7°C° 0 mm 4 mps 758 mmHg 43%
    02:00 -7°C° 0 mm 4 mps 758 mmHg 42%
    03:00 -6°C° 0 mm 3 mps 758 mmHg 40%
    04:00 -7°C° 0 mm 3 mps 758 mmHg 39%
    05:00 -7°C° 0 mm 3 mps 758 mmHg 40%
    06:00 -7°C° 0 mm 3 mps 759 mmHg 40%
    07:00 -7°C° 0 mm 3 mps 759 mmHg 41%
    08:00 -6°C° 0 mm 3 mps 759 mmHg 39%
    09:00 -6°C° 0 mm 3 mps 759 mmHg 38%
    10:00 -5°C° 0 mm 3 mps 760 mmHg 36%
    11:00 -5°C° 0 mm 3 mps 759 mmHg 33%
    12:00 -3°C° 0 mm 2 mps 759 mmHg 30%
    13:00 -2°C° 0 mm 2 mps 759 mmHg 28%
    14:00 -2°C° 0 mm 2 mps 759 mmHg 29%
    15:00 -2°C° 0 mm 2 mps 759 mmHg 30%
    16:00 -2°C° 0 mm 3 mps 759 mmHg 31%
    17:00 -3°C° 0 mm 2 mps 758 mmHg 34%
    18:00 -3°C° 0 mm 2 mps 758 mmHg 37%
    19:00 -2°C° 0 mm 1 mps 758 mmHg 40%
    20:00 -2°C° 0 mm 1 mps 758 mmHg 39%
    21:00 -2°C° 0 mm 1 mps 758 mmHg 39%
    22:00 -3°C° 0 mm 0 mps 758 mmHg 39%
    23:00 -1°C° 0 mm 1 mps 758 mmHg 38%

    24 February, Sunday

    Time Temperature Precipitation Wind Pressure Humidity
    00:00 -1°C° 0 mm 1 mps 758 mmHg 37%
    01:00 -1°C° 0 mm 1 mps 758 mmHg 36%
    02:00 -1°C° 0 mm 1 mps 758 mmHg 37%
    03:00 -1°C° 0 mm 1 mps 757 mmHg 37%
    04:00 -1°C° 0 mm 1 mps 757 mmHg 37%
    05:00 -1°C° 0 mm 1 mps 757 mmHg 38%
    06:00 -3°C° 0 mm 2 mps 757 mmHg 39%
    07:00 -4°C° 0 mm 2 mps 757 mmHg 40%
    08:00 -3°C° 0 mm 2 mps 757 mmHg 37%
    09:00 -2°C° 0 mm 2 mps 757 mmHg 34%
    10:00 -1°C° 0 mm 2 mps 757 mmHg 30%
    11:00 0°C° 0 mm 3 mps 756 mmHg 31%
    12:00 +1°C° 0 mm 3 mps 756 mmHg 32%
    13:00 +2°C° 0 mm 3 mps 756 mmHg 32%
    14:00 +2°C° 0 mm 3 mps 755 mmHg 36%
    15:00 +2°C° 0 mm 2 mps 755 mmHg 40%
    16:00 +2°C° 0 mm 2 mps 755 mmHg 44%
    17:00 +1°C° 0 mm 2 mps 755 mmHg 48%
    18:00 -1°C° 0 mm 2 mps 755 mmHg 52%
    19:00 -2°C° 0 mm 2 mps 755 mmHg 55%
    20:00 -2°C° 0 mm 2 mps 755 mmHg 57%
    21:00 -2°C° 0 mm 2 mps 756 mmHg 59%
    22:00 -2°C° 0 mm 2 mps 756 mmHg 61%
    23:00 -2°C° 0 mm 2 mps 756 mmHg 62%

    25 February, Monday

    Time Temperature Precipitation Wind Pressure Humidity
    00:00 -2°C° 0 mm 2 mps 755 mmHg 64%
    01:00 -2°C° 0 mm 2 mps 755 mmHg 65%
    02:00 -2°C° 0 mm 2 mps 755 mmHg 64%
    03:00 -2°C° 0 mm 2 mps 755 mmHg 64%
    04:00 -2°C° 0 mm 2 mps 755 mmHg 63%
    05:00 -2°C° 0 mm 2 mps 755 mmHg 64%
    06:00 -2°C° 0 mm 2 mps 755 mmHg 65%
    07:00 -2°C° 0 mm 2 mps 755 mmHg 66%
    08:00 -1°C° 0 mm 3 mps 754 mmHg 64%
    09:00 0°C° 0 mm 3 mps 754 mmHg 62%
    10:00 0°C° 0 mm 4 mps 754 mmHg 60%
    11:00 +1°C° 0 mm 4 mps 754 mmHg 61%
    12:00 +3°C° 0 mm 4 mps 754 mmHg 63%
    13:00 +3°C° 0 mm 5 mps 754 mmHg 65%
    14:00 +4°C° 0 mm 4 mps 753 mmHg 69%
    15:00 +4°C° 0 mm 4 mps 753 mmHg 74%
    16:00 +4°C° 0 mm 3 mps 753 mmHg 79%
    17:00 +3°C° 0 mm 4 mps 753 mmHg 79%
    18:00 +1°C° 0 mm 4 mps 754 mmHg 79%
    19:00 0°C° 0 mm 4 mps 754 mmHg 79%
    20:00 0°C° 0 mm 4 mps 754 mmHg 82%
    21:00 -1°C° 0 mm 4 mps 754 mmHg 85%
    22:00 -1°C° 0 mm 4 mps 754 mmHg 88%
    23:00 -2°C° 0 mm 4 mps 754 mmHg 88%
    Show more